TimeEST,TemperatureF,Dew PointF,Humidity,Sea Level PressureIn,VisibilityMPH,Wind Direction,Wind SpeedMPH,Gust SpeedMPH,PrecipitationIn,Events,Conditions,WindDirDegrees,DateUTC
12:35 AM,39.2,35.6,87,30.34,10.0,Calm,Calm,-,N/A,,Overcast,0,2014-01-10 05:35:00
12:55 AM,37.4,35.6,93,30.34,10.0,Calm,Calm,-,N/A,,Overcast,0,2014-01-10 05:55:00
1:15 AM,37.4,37.4,100,30.33,10.0,Calm,Calm,-,N/A,,Overcast,0,2014-01-10 06:15:00
1:35 AM,37.4,37.4,100,30.32,10.0,Calm,Calm,-,N/A,,Overcast,0,2014-01-10 06:35:00
1:55 AM,37.4,37.4,100,30.32,10.0,Calm,Calm,-,N/A,,Overcast,0,2014-01-10 06:55:00
2:15 AM,37.4,37.4,100,30.31,10.0,Calm,Calm,-,N/A,,Overcast,0,2014-01-10 07:15:00
2:35 AM,37.4,37.4,100,30.31,10.0,Calm,Calm,-,N/A,,Overcast,0,2014-01-10 07:35:00
2:55 AM,37.4,37.4,100,30.31,5.0,Calm,Calm,-,N/A,,Mostly Cloudy,0,2014-01-10 07:55:00
3:15 AM,37.4,37.4,100,30.31,2.0,Calm,Calm,-,N/A,,Overcast,0,2014-01-10 08:15:00
3:35 AM,37.4,37.4,100,30.31,6.0,Calm,Calm,-,N/A,,Overcast,0,2014-01-10 08:35:00
3:55 AM,37.4,37.4,100,30.30,9.0,Calm,Calm,-,N/A,,Overcast,0,2014-01-10 08:55:00
4:15 AM,37.4,37.4,100,30.30,7.0,Calm,Calm,-,N/A,,Overcast,0,2014-01-10 09:15:00
4:35 AM,37.4,37.4,100,30.30,2.0,Calm,Calm,-,N/A,,Overcast,0,2014-01-10 09:35:00
4:55 AM,37.4,37.4,100,30.31,2.0,Calm,Calm,-,N/A,,Overcast,0,2014-01-10 09:55:00
5:15 AM,37.4,37.4,100,30.30,1.8,Calm,Calm,-,N/A,,Overcast,0,2014-01-10 10:15:00
5:35 AM,37.4,35.6,93,30.29,3.0,Calm,Calm,-,N/A,,Overcast,0,2014-01-10 10:35:00
5:55 AM,37.4,37.4,100,30.28,4.0,Calm,Calm,-,N/A,,Overcast,0,2014-01-10 10:55:00
6:15 AM,37.4,37.4,100,30.28,6.0,Calm,Calm,-,N/A,,Overcast,0,2014-01-10 11:15:00
6:35 AM,37.4,37.4,100,30.28,2.5,NE,4.6,-,N/A,,Overcast,40,2014-01-10 11:35:00
6:55 AM,37.4,35.6,93,30.28,5.0,NE,3.5,-,N/A,,Overcast,40,2014-01-10 11:55:00
7:15 AM,37.4,35.6,93,30.28,5.0,NNE,3.5,-,N/A,,Overcast,30,2014-01-10 12:15:00
7:35 AM,37.4,37.4,100,30.28,7.0,NNE,3.5,-,N/A,,Overcast,30,2014-01-10 12:35:00
7:55 AM,37.4,37.4,100,30.28,9.0,NNE,3.5,-,N/A,,Overcast,30,2014-01-10 12:55:00
8:15 AM,37.4,35.6,93,30.28,10.0,NE,4.6,-,N/A,,Overcast,40,2014-01-10 13:15:00
8:35 AM,35.6,35.6,100,30.28,10.0,NE,6.9,-,N/A,,Overcast,40,2014-01-10 13:35:00
8:55 AM,37.4,35.6,93,30.29,10.0,NNE,4.6,-,N/A,,Overcast,30,2014-01-10 13:55:00
9:35 AM,37.4,37.4,100,30.28,0.2,NE,4.6,-,N/A,,Unknown,40,2014-01-10 14:35:00
9:55 AM,37.4,37.4,100,30.28,6.0,NNE,4.6,-,N/A,,Overcast,30,2014-01-10 14:55:00
10:15 AM,37.4,37.4,100,30.28,10.0,NE,4.6,-,N/A,,Overcast,40,2014-01-10 15:15:00
10:35 AM,39.2,39.2,100,30.28,10.0,NNE,3.5,-,N/A,,Overcast,30,2014-01-10 15:35:00
10:55 AM,41.0,39.2,93,30.27,10.0,NNE,3.5,-,N/A,,Overcast,20,2014-01-10 15:55:00
11:15 AM,41.0,39.2,93,30.26,10.0,NNE,4.6,-,N/A,,Overcast,30,2014-01-10 16:15:00
11:35 AM,42.8,41.0,93,30.24,10.0,Calm,Calm,-,N/A,,Overcast,0,2014-01-10 16:35:00
11:55 AM,42.8,42.8,100,30.22,10.0,NNE,4.6,-,N/A,,Overcast,20,2014-01-10 16:55:00
12:15 PM,44.6,42.8,93,30.20,10.0,NE,3.5,-,N/A,,Overcast,40,2014-01-10 17:15:00
12:35 PM,44.6,42.8,93,30.18,10.0,Calm,Calm,-,N/A,,Overcast,0,2014-01-10 17:35:00
12:55 PM,46.4,42.8,87,30.17,10.0,Calm,Calm,-,N/A,,Overcast,0,2014-01-10 17:55:00
1:15 PM,46.4,42.8,87,30.15,10.0,Calm,Calm,-,N/A,,Overcast,0,2014-01-10 18:15:00
1:35 PM,46.4,42.8,87,30.13,10.0,Calm,Calm,-,N/A,,Overcast,0,2014-01-10 18:35:00
1:55 PM,48.2,44.6,87,30.12,10.0,Calm,Calm,-,N/A,,Overcast,0,2014-01-10 18:55:00
2:15 PM,48.2,44.6,87,30.12,10.0,Calm,Calm,-,N/A,,Overcast,0,2014-01-10 19:15:00
2:35 PM,48.2,44.6,87,30.11,10.0,Calm,Calm,-,N/A,,Overcast,0,2014-01-10 19:35:00
2:55 PM,48.2,44.6,87,30.09,10.0,Calm,Calm,-,N/A,,Overcast,0,2014-01-10 19:55:00
3:15 PM,50.0,44.6,82,30.09,10.0,SW,4.6,-,N/A,,Overcast,220,2014-01-10 20:15:00
3:35 PM,48.2,44.6,87,30.09,10.0,Calm,Calm,-,N/A,,Overcast,0,2014-01-10 20:35:00
3:55 PM,48.2,44.6,87,30.08,10.0,Calm,Calm,-,N/A,,Overcast,0,2014-01-10 20:55:00
4:15 PM,48.2,44.6,87,30.06,10.0,Calm,Calm,-,N/A,,Overcast,0,2014-01-10 21:15:00
4:35 PM,48.2,44.6,87,30.06,10.0,WSW,3.5,-,N/A,,Overcast,240,2014-01-10 21:35:00
4:55 PM,48.2,44.6,87,30.06,10.0,Calm,Calm,-,N/A,,Overcast,0,2014-01-10 21:55:00
5:15 PM,48.2,44.6,87,30.07,10.0,SW,4.6,-,N/A,,Overcast,230,2014-01-10 22:15:00
5:35 PM,46.4,44.6,93,30.06,10.0,Calm,Calm,-,N/A,,Overcast,0,2014-01-10 22:35:00
5:55 PM,46.4,44.6,93,30.06,10.0,SW,4.6,-,N/A,,Overcast,230,2014-01-10 22:55:00
6:15 PM,46.4,44.6,93,30.05,10.0,Calm,Calm,-,N/A,,Overcast,0,2014-01-10 23:15:00
6:35 PM,44.6,44.6,100,30.04,6.0,West,3.5,-,N/A,,Overcast,270,2014-01-10 23:35:00
6:55 PM,44.6,44.6,100,30.04,5.0,WSW,3.5,-,N/A,,Mostly Cloudy,240,2014-01-10 23:55:00
7:15 PM,44.6,44.6,100,30.03,6.0,Calm,Calm,-,N/A,,Mostly Cloudy,0,2014-01-11 00:15:00
7:35 PM,44.6,44.6,100,30.04,6.0,WSW,3.5,-,N/A,,Overcast,240,2014-01-11 00:35:00
7:55 PM,44.6,42.8,93,30.04,2.0,Calm,Calm,-,N/A,,Overcast,0,2014-01-11 00:55:00
8:15 PM,44.6,42.8,93,30.04,2.0,Calm,Calm,-,N/A,,Mostly Cloudy,0,2014-01-11 01:15:00
8:35 PM,44.6,42.8,93,30.04,2.0,SW,3.5,-,N/A,,Overcast,220,2014-01-11 01:35:00
8:55 PM,42.8,42.8,100,30.04,1.8,Calm,Calm,-,N/A,,Overcast,0,2014-01-11 01:55:00
9:15 PM,42.8,42.8,100,30.02,1.5,Calm,Calm,-,N/A,,Overcast,0,2014-01-11 02:15:00
9:35 PM,42.8,42.8,100,30.02,1.8,Calm,Calm,-,N/A,,Overcast,0,2014-01-11 02:35:00
9:55 PM,42.8,42.8,100,30.01,2.5,Calm,Calm,-,N/A,,Overcast,0,2014-01-11 02:55:00
10:15 PM,44.6,42.8,93,30.01,2.5,Calm,Calm,-,N/A,,Overcast,0,2014-01-11 03:15:00
10:35 PM,42.8,42.8,100,30.01,1.5,Calm,Calm,-,N/A,,Overcast,0,2014-01-11 03:35:00
10:55 PM,42.8,42.8,100,30.00,0.5,Calm,Calm,-,N/A,,Overcast,0,2014-01-11 03:55:00
11:15 PM,42.8,42.8,100,29.99,0.5,Calm,Calm,-,N/A,,Overcast,0,2014-01-11 04:15:00
11:35 PM,42.8,42.8,100,29.96,0.5,Calm,Calm,-,N/A,,Overcast,0,2014-01-11 04:35:00
11:55 PM,42.8,42.8,100,29.95,0.5,Calm,Calm,-,N/A,,Overcast,0,2014-01-11 04:55:00